Weather History for KICR - January, 2013

Change the Weather History Date:

Saturday, January 19, 2013

  Actual Average Record
Temperature  
Mean Temperature 30 °F 25 °F  
Max Temperature 48 °F 36 °F 61 °F (2014)
Min Temperature 12 °F 14 °F -6 °F (2011)
Degree Days  
Heating Degree Days 35 40  
Month to date heating degree days 684 765  
Since 1 July heating degree days 3098 3471  
Cooling Degree Days 0 0  
Month to date cooling degree days 0 0  
Year to date cooling degree days 0 0  
Moisture  
Dew Point 21 °F    
Average Humidity 59    
Maximum Humidity 80    
Minimum Humidity 38    
Precipitation  
Precipitation 0.00 in 0.01 in 0.00 in (2015)
Month to date precipitation T 0.14  
Year to date precipitation T 0.14  
Sea Level Pressure  
Sea Level Pressure 30.13 in    
Wind  
Wind Speed 16 mph (NW)    
Max Wind Speed 30 mph    
Max Gust Speed 36 mph    
Visibility 10 miles    
Events      
T = Trace of Precipitation, MM = Missing Value Source: NWS Daily Summary

Daily Weather History Graph

Daily Weather History Graph

Search for Another Location

Airport or City:

Trip Planner

Search our weather history database for the weather conditions in past years. The results will help you decide how hot, cold, wet, or windy it might be!

Date:

Astronomy

Jan. 19, 2013 Rise Set
Actual Time 8:06 AM CST 5:34 PM CST
Civil Twilight 7:35 AM CST 6:05 PM CST
Nautical Twilight 7:00 AM CST 6:40 PM CST
Astronomical Twilight 6:26 AM CST 7:14 PM CST
Moon 12:03 PM CST (1/19) 1:39 AM CST (1/19)
Length of Visible Light 10h 30m
Length of Day
9h 27m
First Quarter, 57% of the Moon is Illuminated
Jan 19
First Quarter
Jan 26
Full
Feb 3
Last Quarter
Feb 10
New
Feb 17
First Quarter

Hourly Weather History & Observations

Time (CST) Temp. Windchill Dew Point Humidity Pressure Visibility Wind Dir Wind Speed Gust Speed Precip Events Conditions
12:53 AM 43.0 °F 37.7 °F 24.1 °F 47% 29.84 in 10.0 mi West 9.2 mph - N/A   Partly Cloudy
1:53 AM 46.0 °F 39.9 °F 23.0 °F 40% 29.83 in 10.0 mi West 13.8 mph - N/A   Clear
2:53 AM 43.0 °F 35.7 °F 24.1 °F 47% 29.86 in 10.0 mi West 15.0 mph - N/A   Clear
3:53 AM 39.9 °F 31.8 °F 23.0 °F 51% 29.87 in 10.0 mi West 15.0 mph - N/A   Clear
4:53 AM 39.9 °F 31.8 °F 24.1 °F 53% 29.89 in 10.0 mi West 15.0 mph - N/A   Clear
5:53 AM 42.1 °F 32.8 °F 23.0 °F 47% 29.91 in 10.0 mi West 21.9 mph - N/A   Clear
6:53 AM 39.9 °F 30.5 °F 24.1 °F 53% 29.95 in 10.0 mi WNW 19.6 mph 25.3 mph N/A   Clear
7:53 AM 37.9 °F 29.6 °F 24.1 °F 57% 29.99 in 10.0 mi WNW 13.8 mph - N/A   Clear
8:53 AM 37.9 °F 29.2 °F 25.0 °F 60% 30.03 in 10.0 mi WNW 15.0 mph - N/A   Clear
9:53 AM 42.1 °F 34.2 °F 26.1 °F 53% 30.08 in 10.0 mi WNW 16.1 mph - N/A   Clear
10:53 AM 45.0 °F 37.4 °F 27.0 °F 49% 30.09 in 10.0 mi NW 18.4 mph 28.8 mph N/A   Clear
11:53 AM 46.9 °F - 27.0 °F 46% 30.10 in 10.0 mi NW 24.2 mph - N/A   Clear
12:53 PM 48.0 °F - 27.0 °F 44% 30.10 in 10.0 mi NNW 21.9 mph 31.1 mph N/A   Clear
1:53 PM 46.0 °F 37.6 °F 27.0 °F 47% 30.12 in 10.0 mi NNW 24.2 mph 31.1 mph N/A   Overcast
2:53 PM 46.0 °F 37.2 °F 27.0 °F 47% 30.16 in 10.0 mi NW 26.5 mph 32.2 mph N/A   Scattered Clouds
3:53 PM 42.1 °F 32.6 °F 25.0 °F 51% 30.21 in 10.0 mi NW 23.0 mph 33.4 mph N/A   Overcast
4:53 PM 34.0 °F 22.7 °F 25.0 °F 70% 30.27 in 10.0 mi North 19.6 mph - N/A   Scattered Clouds
5:53 PM 28.0 °F 16.5 °F 19.9 °F 72% 30.32 in 10.0 mi North 15.0 mph - N/A   Mostly Cloudy
6:31 PM 28.4 °F 16.2 °F 15.8 °F 59% 30.28 in 10.0 mi NNW 17.3 mph - N/A   Overcast
6:49 PM 26.6 °F 14.3 °F 12.2 °F 55% 30.28 in 10.0 mi North 16.1 mph 24.2 mph N/A   Overcast
6:53 PM 26.1 °F 14.0 °F 12.9 °F 58% 30.35 in 10.0 mi North 15.0 mph 24.2 mph N/A   Overcast
7:53 PM 21.0 °F 10.6 °F 14.0 °F 74% 30.36 in 10.0 mi NNE 9.2 mph - N/A   Clear
8:53 PM 18.0 °F 4.8 °F 10.9 °F 74% 30.39 in 10.0 mi North 12.7 mph - N/A   Clear
9:53 PM 15.1 °F 3.3 °F 9.0 °F 77% 30.38 in 10.0 mi North 9.2 mph - N/A   Clear
10:53 PM 14.0 °F 5.1 °F 8.1 °F 77% 30.39 in 10.0 mi NNE 5.8 mph - N/A   Clear
11:53 PM 12.9 °F 0.7 °F 6.1 °F 74% 30.39 in 10.0 mi NNE 9.2 mph - N/A   Clear